Date String (YYYY-MM-DD hh:mm:ss) UTC,Instrument flags,Ambient pressure (hPa),Sample flow (lpm),Bypass flow (lpm),Sample temperature (°C),Ambient temperature (°C),ASC tube jacket temperature (°C),LED temperature (°C),Box temperature (°C),Sample RH (%),Span deviation,Mass concentration (μg/m³),Mass concentration (μg/m³),Mass concentration (μg/m³)
DateTimeUTC,F1_M11,P_M11,Q1_M11,Q2_M11,T1_M11,T2_M11,T3_M11,T4_M11,T5_M11,U1_M11,ZSPAN_M11,X0_M11,X2_M11,X1_M11
2021-09-29 03:00:00,,0818.7,5.01,0.00,29.4,26.5,00.0,38.6,30.9,18.3,0001.1,0010.95,0005.65,0005.04
2021-09-29 03:01:00,,0818.7,5.00,0.00,29.4,27.0,00.0,38.6,31.0,18.4,0001.3,0010.97,0005.68,0005.05
2021-09-29 03:02:00,,0818.7,5.00,0.00,29.4,27.3,00.0,38.6,31.0,18.5,0001.6,0011.01,0005.71,0005.08
2021-09-29 03:03:00,,0818.7,5.01,0.00,29.4,27.6,00.0,38.6,31.1,18.5,0001.6,0010.70,0005.72,0005.11
2021-09-29 03:04:00,,0818.7,4.98,0.00,29.4,27.9,00.0,38.6,31.2,18.5,0001.6,0010.26,0005.74,0005.13
2021-09-29 03:05:00,,0818.7,5.00,0.00,29.5,28.1,00.0,38.6,31.2,18.4,0001.9,0010.60,0005.80,0005.17
2021-09-29 03:06:00,,0818.7,5.00,0.00,29.5,28.2,00.0,38.6,31.3,18.4,0001.6,0011.01,0005.81,0005.19
2021-09-29 03:07:00,,0818.7,5.00,0.00,29.5,28.4,00.0,38.6,31.3,18.4,0001.6,0011.03,0005.84,0005.21
2021-09-29 03:08:00,,0818.8,5.00,0.00,29.6,28.5,00.0,38.6,31.4,18.3,0001.8,0011.32,0005.83,0005.22
2021-09-29 03:09:00,,0818.8,5.00,0.00,29.6,28.6,00.0,38.6,31.4,18.3,0001.9,0011.52,0005.84,0005.25
2021-09-29 03:10:00,,0818.7,5.01,0.00,29.6,28.7,00.0,38.6,31.5,18.2,0002.0,0011.47,0005.89,0005.27
2021-09-29 03:11:00,,0818.7,5.00,0.00,29.7,28.7,00.0,38.6,31.5,18.1,0001.9,0011.83,0005.91,0005.31
2021-09-29 03:12:00,,0818.7,5.00,0.00,29.7,28.8,00.0,38.7,31.5,18.1,0002.0,0011.91,0005.92,0005.34
2021-09-29 03:13:00,,0818.8,5.00,0.00,29.7,28.9,00.0,38.7,31.6,18.2,0001.8,0011.82,0005.91,0005.34
2021-09-29 03:14:00,,0818.8,4.99,0.00,29.8,28.9,00.0,38.7,31.6,18.4,0001.9,0011.92,0005.91,0005.32
2021-09-29 03:15:00,,0818.8,5.01,0.00,29.8,28.9,00.0,38.7,31.6,18.4,0001.8,0012.50,0005.93,0005.31
2021-09-29 03:16:00,,0818.7,5.00,0.00,29.8,27.3,00.0,38.7,31.2,18.4,0001.7,0012.36,0005.86,0005.27
2021-09-29 03:17:00,,0818.8,5.00,0.00,29.6,26.2,00.0,38.7,30.9,18.4,0001.6,0012.04,0005.83,0005.25
2021-09-29 03:18:00,,0818.8,5.00,0.00,29.5,26.3,00.0,38.7,30.9,18.5,0001.4,0012.33,0005.81,0005.24
2021-09-29 03:19:00,,0818.8,5.01,0.00,29.4,26.7,00.0,38.7,31.0,18.5,0001.0,0012.38,0005.81,0005.22
2021-09-29 03:20:00,,0818.8,4.99,0.00,29.4,27.1,00.0,38.6,31.0,18.6,0001.3,0012.82,0005.81,0005.18
2021-09-29 03:21:00,,0818.8,4.98,0.00,29.4,27.5,00.0,38.6,31.1,18.6,0001.2,0014.06,0005.80,0005.15
2021-09-29 03:22:00,,0818.8,5.01,0.00,29.5,27.8,00.0,38.6,31.2,18.5,0001.3,0014.36,0005.79,0005.11
2021-09-29 03:23:00,,0818.8,5.00,0.00,29.5,28.0,00.0,38.6,31.2,18.4,0001.3,0014.40,0005.77,0005.07
2021-09-29 03:24:00,,0818.9,5.01,0.00,29.5,28.2,00.0,38.6,31.3,18.4,0001.2,0014.63,0005.75,0005.03
2021-09-29 03:25:00,,0818.8,4.99,0.00,29.5,28.3,00.0,38.6,31.3,18.4,0001.1,0014.70,0005.74,0005.01
2021-09-29 03:26:00,,0818.8,5.01,0.00,29.6,28.4,00.0,38.6,31.4,18.4,0001.0,0015.22,0005.75,0004.99
2021-09-29 03:27:00,,0818.9,5.00,0.00,29.6,28.5,00.0,38.6,31.4,18.4,0001.0,0015.03,0005.78,0004.99
2021-09-29 03:28:00,,0818.8,5.00,0.00,29.6,28.6,00.0,38.6,31.4,18.4,0000.9,0015.91,0005.80,0004.98
2021-09-29 03:29:00,,0818.8,5.00,0.00,29.7,28.7,00.0,38.6,31.5,18.3,0001.2,0016.42,0005.81,0004.96
2021-09-29 03:30:00,,0818.9,5.00,0.00,29.7,28.8,00.0,38.7,31.5,18.3,0001.4,0016.38,0005.84,0004.95
2021-09-29 03:31:00,,0818.8,4.99,0.00,29.7,28.9,00.0,38.7,31.6,18.2,0001.2,0015.85,0005.87,0004.96
2021-09-29 03:32:00,,0818.9,5.00,0.00,29.8,28.9,00.0,38.7,31.6,18.2,0000.8,0015.28,0005.86,0004.97
2021-09-29 03:33:00,,0818.9,5.01,0.00,29.8,29.0,00.0,38.7,31.7,18.2,0000.7,0014.62,0005.86,0004.97
2021-09-29 03:34:00,,0818.9,4.99,0.00,29.8,29.0,00.0,38.8,31.7,18.2,0000.9,0014.55,0005.88,0004.95
2021-09-29 03:35:00,,0818.9,5.00,0.00,29.8,27.9,00.0,38.8,31.4,18.3,0000.8,0014.65,0005.87,0004.94
2021-09-29 03:36:00,,0819.0,4.99,0.00,29.6,26.3,00.0,38.8,31.0,18.5,0000.5,0015.02,0005.87,0004.94
2021-09-29 03:37:00,,0818.9,5.00,0.00,29.5,26.3,00.0,38.7,31.0,18.6,0000.6,0015.13,0005.85,0004.94
2021-09-29 03:38:00,,0818.9,5.01,0.00,29.5,26.7,00.0,38.7,31.0,18.6,0000.7,0014.93,0005.82,0004.93
2021-09-29 03:39:00,,0818.9,5.00,0.00,29.4,27.1,00.0,38.7,31.1,18.7,0001.0,0014.36,0005.79,0004.92
2021-09-29 03:40:00,,0818.9,4.99,0.00,29.5,27.4,00.0,38.6,31.1,18.6,0001.0,0013.62,0005.79,0004.92
2021-09-29 03:41:00,,0818.9,5.01,0.00,29.5,27.7,00.0,38.6,31.2,18.5,0001.2,0013.55,0005.77,0004.92
2021-09-29 03:42:00,,0818.9,5.00,0.00,29.5,28.0,00.0,38.6,31.2,18.5,0001.3,0013.56,0005.74,0004.92
2021-09-29 03:43:00,,0819.0,5.00,0.00,29.5,28.2,00.0,38.6,31.3,18.5,0001.9,0012.95,0005.76,0004.92
2021-09-29 03:44:00,,0819.0,4.99,0.00,29.5,28.3,00.0,38.6,31.3,18.6,0001.8,0013.01,0005.76,0004.93
2021-09-29 03:45:00,,0819.0,5.01,0.00,29.6,28.4,00.0,38.6,31.4,18.5,0001.5,0012.84,0005.75,0004.95
2021-09-29 03:46:00,,0819.0,5.00,0.00,29.6,28.6,00.0,38.6,31.4,18.4,0001.3,0012.96,0005.75,0004.97
2021-09-29 03:47:00,,0819.0,5.00,0.00,29.7,28.7,00.0,38.7,31.5,17.9,0001.5,0013.37,0005.81,0005.01
2021-09-29 03:48:00,,0819.0,5.01,0.00,29.7,28.7,00.0,38.7,31.5,17.9,0001.7,0012.44,0005.82,0005.03
2021-09-29 03:49:00,,0819.0,4.99,0.00,29.7,28.8,00.0,38.7,31.6,17.6,0001.9,0013.09,0005.86,0005.04
2021-09-29 03:50:00,,0819.0,5.01,0.00,29.8,28.9,00.0,38.7,31.6,17.7,0002.0,0013.33,0005.89,0005.06
2021-09-29 03:51:00,,0819.0,5.01,0.00,29.8,28.9,00.0,38.7,31.7,17.7,0002.1,0013.19,0005.87,0005.07
2021-09-29 03:52:00,,0819.0,5.01,0.00,29.8,29.0,00.0,38.8,31.7,18.0,0002.3,0013.33,0005.84,0005.06
2021-09-29 03:53:00,,0819.0,5.00,0.00,29.9,29.0,00.0,38.8,31.7,18.1,0002.2,0013.55,0005.79,0005.02
2021-09-29 03:54:00,,0819.0,5.01,0.00,29.9,29.1,00.0,38.8,31.7,18.0,0002.2,0013.37,0005.70,0004.97
2021-09-29 03:55:00,,0819.0,4.99,0.00,29.9,29.1,00.0,38.8,31.8,18.0,0002.0,0013.06,0005.61,0004.92
2021-09-29 03:56:00,,0819.0,5.00,0.00,30.0,29.1,00.0,38.9,31.8,17.9,0001.9,0013.46,0005.58,0004.90
2021-09-29 03:57:00,,0819.0,5.01,0.00,30.0,29.2,00.0,38.9,31.8,17.8,0002.4,0013.56,0005.57,0004.88
2021-09-29 03:58:00,,0819.0,4.99,0.00,30.0,27.8,00.0,38.9,31.5,17.9,0002.5,0012.46,0005.49,0004.84
2021-09-29 03:59:00,,0819.0,4.99,0.00,29.8,26.3,00.0,38.9,31.0,18.2,0002.4,0012.53,0005.44,0004.81
